Regional Weather Roundup
Issued by NWS Memphis, TN

Home | Current Version | Previous Version | Text Only | Print | Product List | Glossary On
Versions: 1 2 3 4 5 6 7 8 9 10 11 12 13 14 15 16 17 18 19 20 21 22 23 24 25 26 27 28 29 30 31 32 33 34 35 36 37 38 39 40 41 42 43 44 45 46 47 48 49 50
000
ASUS44 KMEG 291610
RWRMEG
MEMPHIS CWA HOURLY WEATHER ROUNDUP
NATIONAL WEATHER SERVICE MEMPHIS TN
1100 AM CDT FRI AUG 29 2014

...WEST TENNESSEE...

CITY           SKY/WX    TMP DP  RH WIND       PRES   REMARKS
MEMPHIS INTL   MOSUNNY   89  70  53 VRB7      29.99S HX  94
NWS MEMPHIS      N/A     88 N/A N/A MISG        N/A
JACKSON        MOSUNNY   85  66  53 S3        30.00F
LEXINGTON      SUNNY     86  68  54 S5        30.01F
SAVANNAH       SUNNY     86  70  58 S6        30.02F HX  90
DYERSBURG      SUNNY     88  66  48 SW5       30.00S HX  90
UNION CITY     SUNNY     86  72  62 SW3       29.98F HX  92
PARIS          SUNNY     86  68  54 SW6       30.02S
HUNTINGDON     MOSUNNY   87  69  54 VRB3      30.00F HX  91


...EASTERN ARKANSAS...

CITY           SKY/WX    TMP DP  RH WIND       PRES   REMARKS
JONESBORO      SUNNY     89  67  47 S10       29.96F HX  92
WEST MEMPHIS   SUNNY     87  75  67 S9        29.97S HX  96
BATESVILLE     PTSUNNY   88  66  48 S10       29.96R HX  90
NEWPORT        SUNNY     87  71  58 SE3       29.97F HX  92
WALNUT RIDGE   SUNNY     88  70  55 S8        29.95F HX  92
BLYTHEVILLE    SUNNY     87  72  60 S8        29.99S HX  93
SEARCY         MOSUNNY   85  72  65 MISG      29.98R HX  91
STUTTGART      MOSUNNY   81  73  78 SE7       29.99R
PINE BLUFF     SUNNY     85  73  67 VRB5      29.98R HX  91
MONTICELLO     SUNNY     86  72  62 W6        29.98R HX  92


...NORTH MISSISSIPPI...

CITY           SKY/WX    TMP DP  RH WIND       PRES   REMARKS
TUPELO         MOSUNNY   86  67  52 S7        30.01S
OLIVE BRANCH   MOSUNNY   86  72  62 SW7       30.00S HX  92
CLARKSDALE     SUNNY     88  73  62 CALM      29.99F HX  96
CORINTH        MOSUNNY   84  68  58 SE3       30.01S
GRENADA        SUNNY     86  70  58 S5        30.00F HX  90
GREENWOOD      SUNNY     87  73  62 VRB3      29.99S HX  94
COLUMBUS       MOSUNNY   87  67  52 S7        30.02R
STARKVILLE     FAIR      86  70  58 E5        30.02R HX  90
GOLDEN TRIANGL SUNNY     88  66  48 SE7       30.03R HX  90


...SOUTHEAST MISSOURI...

CITY           SKY/WX    TMP DP  RH WIND       PRES   REMARKS
WEST PLAINS    SUNNY     84  66  54 S13G18    29.99F
POPLAR BLUFF   SUNNY     86  68  54 SE7       29.96F
CAPE GIRARDEAU MOSUNNY   84  74  71 SW6       29.98F HX  91


...NORTHWEST ALABAMA...

CITY           SKY/WX    TMP DP  RH WIND       PRES   REMARKS
MUSCLE SHOALS  MOSUNNY   87  64  46 S6        30.05S


...MIDDLE TENNESSEE...

CITY           SKY/WX    TMP DP  RH WIND       PRES   REMARKS
NASHVILLE      MOSUNNY   90  62  39 S13       30.05S HX  90
CLARKSVILLE    SUNNY     85  70  60 SE5       30.02F
DICKSON        SUNNY     84  66  54 VRB3      30.04S
COLUMBIA         N/A     84  72  65 CALM      30.04S
LEWISBURG      SUNNY     88  67  49 S5        30.05F HX  91


...WESTERN KENTUCKY...

CITY           SKY/WX    TMP DP  RH WIND       PRES   REMARKS
PADUCAH        SUNNY     88  72  58 SW7       29.99S HX  94
FORT CAMPBELL  SUNNY     87  70  55 S2        30.02F HX  92


...CENTRAL ARKANSAS...

CITY           SKY/WX    TMP DP  RH WIND       PRES   REMARKS
LITTLE ROCK    MOSUNNY   84  70  62 VRB5      29.96S


SKY/WX REPORTED AS FAIR MEANS FEW OR NO CLOUDS BELOW
12 THOUSAND FEET.



USA.gov is the U.S. government's official web portal to all federal, state and local government web resources and services.